This is the latest recevied weather packets stored in our database for station/object KB2FWP. If no packets are shown the sender has not sent any weather packets the latest 10 day(s).
| Time | Temp. | Humidity | Pressure | Rain* | Wind** | Luminosity | Snow |
|---|---|---|---|---|---|---|---|
| 1787772602 | 26.11° C | 69% | 1019.3 hPa | 0 mm | - | - | - |
| 1787771702 | 25.56° C | 70% | 1019.4 hPa | 0 mm | - | - | - |
| 1787770861 | 25° C | 69% | 1019.4 hPa | 0 mm | - | - | - |
| 1787769960 | 25° C | 71% | 1019.6 hPa | 0 mm | - | - | - |
| 1787769059 | 25° C | 71% | 1019.6 hPa | 0 mm | - | - | - |
| 1787768164 | 24.44° C | 71% | 1019.8 hPa | 0 mm | - | - | - |
| 1787767261 | 25° C | 71% | 1019.7 hPa | 0 mm | - | - | - |
| 1787766361 | 24.44° C | 70% | 1019.8 hPa | 0 mm | - | - | - |
| 1787765456 | 25° C | 70% | 1019.9 hPa | 0 mm | - | - | - |
| 1787764557 | 23.89° C | 70% | 1020 hPa | 0 mm | - | - | - |
| 1787763655 | 23.89° C | 71% | 1020.1 hPa | 0 mm | - | - | - |
| 1787762756 | 24.44° C | 71% | 1020.2 hPa | 0 mm | - | - | - |
| 1787761867 | 23.89° C | 73% | 1020.2 hPa | 0 mm | - | - | - |
| 1787760953 | 24.44° C | 70% | 1020.1 hPa | 0 mm | - | - | - |
| 1787760052 | 24.44° C | 70% | 1020.3 hPa | 0 mm | - | - | - |
| 1787759158 | 24.44° C | 68% | 1020.1 hPa | 0 mm | - | - | - |
| 1787758251 | 25° C | 68% | 1020.1 hPa | 0 mm | - | - | - |
| 1787757351 | 25° C | 67% | 1020.3 hPa | 0 mm | - | - | - |
| 1787756456 | 24.44° C | 66% | 1020.3 hPa | 0 mm | - | - | - |
| 1787755559 | 25° C | 68% | 1020.5 hPa | 0 mm | - | - | - |
| 1787754648 | 26.11° C | 63% | 1020.3 hPa | 0 mm | - | - | - |
| 1787753748 | 25.56° C | 64% | 1020.1 hPa | 0 mm | - | - | - |
| 1787752841 | 25° C | 66% | 1020.2 hPa | 0 mm | - | - | - |
| 1787751939 | 23.89° C | 68% | 1020.1 hPa | 0 mm | - | - | - |
| 1787751038 | 23.89° C | 69% | 1020.2 hPa | 0 mm | - | - | - |
* Rain latest hour (hover to see other rain measurements)
** Current wind speed in m/s (hover to see current wind gust speed)